Location: Belfast
(54.5830°N, 5.9330°W)
Time: 17:35:07
(UTC+00:00)

ISS - Pass Details

Date: 26 May 2017
Orbit: 401 x 407 km, 51.6° (Epoch: 18 November)

Event Time Altitude Azimuth Distance (km) Brightness Sun altitude
Rises 23:51:11 0° 252° (WSW) 2,362 0.1 -11.7°
Reaches altitude 10° 23:53:20 10° 247° (WSW) 1,496 -1.0 -11.8°
Maximum altitude 23:56:34 47° 172° (S) 559 -3.6 -12.0°
Drops below altitude 10° 23:59:48 10° 97° (E) 1,488 -1.2 -12.2°
Sets 00:01:55 0° 92° (E) 2,347 -0.2 -12.3°
